ENSO
1 58470U 23185J 24200.85267054 .00026266 00000-0 10693-2 0 9991
2 58470 97.4257 267.2608 0013276 162.5980 197.5716 15.24395428 34962
EIRSAT-1
1 58472U 23185L 24200.87869946 .00030847 00000-0 12294-2 0 9992
2 58472 97.4249 267.3564 0012848 163.4629 196.7031 15.25080099 34979
SO-121
1 58567U 23174CY 24200.68112061 .00088775 00000-0 27142-2 0 9994
2 58567 97.4531 276.5805 0011771 123.1645 237.0728 15.33450066 38603
SONATE-2
1 59112U 24043Q 24200.59260145 .00017711 00000-0 83702-3 0 9991
2 59112 97.4813 324.1124 0014995 180.7041 179.4175 15.19364465 20570
KASHIWA
1 59508U 98067WH 24200.56107636 .00392914 00000-0 18911-2 0 9999
2 59508 51.6251 150.3553 0009029 90.7543 269.4493 15.80953994 15432
MESAT1
1 60209U 24125G 24199.12255324 .00015234 00000-0 71734-3 0 9990
2 60209 97.3222 51.6252 0025796 215.8933 144.0569 15.19321115 1969
GRBBETA
1 60236U 24128B 24200.48011519 .00004531 00000-0 40975-3 0 9992
2 60236 61.9945 131.7429 0010101 283.0408 76.9552 14.96831461 1297
ROBUSTA-3A
1 60243U 24128J 24200.55364680 .00011249 00000-0 10187-2 0 9993
2 60243 61.9920 131.5373 0012839 255.9264 104.0396 14.95728391 1309
/EX
1
0
s week there are no additions or deletions to the AMSAT TLE distribution.
Joe Fitzgerald KM1P
AMSAT Orbital Elements Manager
1
0
SB KEPS @ AMSAT $ORB24194.1
2Line Orbital Elements 24194.AMSAT
QST de W1STR
AMSAT Orbital Elements for Amateur Satellites in TLE Format
>From Orbital Analysis Office
New England Sci-Tech STEM Education Center
Natick, MA July 12, 2024
To all radio amateurs
These element sets describe the orbits of various satellites
in use by the amateur radio community. For details see:
www.amsat.org/keplerian-elements-formats/
A daily update of element sets is available at:
www.amsat.org/tle/daily-bulletin.txt
or without bulletin text:
www.amsat.org/tle/dailytle.txt
AO-07
1 07530U 74089B 24192.92637009 -.00000040 00000-0 38428-4 0 9991
2 07530 101.9783 187.7970 0012532 40.4152 14.6972 12.53676800272259
UO-11
1 14781U 84021B 24193.65436191 .00002176 00000-0 24976-3 0 9997
2 14781 97.7060 162.1943 0008139 8.4824 351.6529 14.86844631173125
AO-27
1 22825U 93061C 24193.87844486 .00000188 00000-0 89531-4 0 9993
2 22825 98.7870 246.9100 0008570 14.6388 345.5041 14.30519635606418
FO-29
1 24278U 96046B 24193.51991488 .00000016 00000-0 49881-4 0 9993
2 24278 98.5801 124.9859 0350852 125.1304 238.3251 13.53192234377973
NOAA-15
1 25338U 98030A 24193.64395576 .00000295 00000-0 14014-3 0 9994
2 25338 98.5673 220.2590 0009151 250.7589 109.2601 14.26624347360921
GO-32
1 25397U 98043D 24193.47742659 .00000145 00000-0 82923-4 0 9991
2 25397 98.9228 160.5646 0002412 88.7857 271.3597 14.24067218351093
ISS
1 25544U 98067A 24193.70440880 .00012093 00000-0 22113-3 0 9997
2 25544 51.6371 193.8762 0010319 55.2719 304.9240 15.49751494462355
NO-44
1 26931U 01043C 24193.59447108 .00000206 00000-0 10903-3 0 9990
2 26931 67.0509 268.4971 0007514 276.6334 83.3913 14.31273128189440
SO-50
1 27607U 02058C 24193.27091734 .00002043 00000-0 29240-3 0 9998
2 27607 64.5546 147.5143 0025737 99.7362 260.6650 14.79119143159885
CO-55
1 27844U 03031E 24193.55474312 .00000503 00000-0 24109-3 0 9999
2 27844 98.6766 200.2440 0011016 76.1020 284.1384 14.23308531 91253
CO-57
1 27848U 03031J 24193.56884286 .00000423 00000-0 20808-3 0 9992
2 27848 98.6795 200.4889 0010942 90.4006 269.8426 14.22743546 91006
RS-22
1 27939U 03042A 24193.70710456 .00001635 00000-0 28065-3 0 9997
2 27939 98.2937 350.2988 0011599 348.6913 21.9722 14.70074726111884
NOAA-18
1 28654U 05018A 24193.70443776 .00000280 00000-0 17282-3 0 9999
2 28654 98.8740 270.4660 0013962 358.4943 1.6185 14.13250016986721
CO-58
1 28895U 05043F 24193.30451535 .00002215 00000-0 39589-3 0 9996
2 28895 98.2051 329.1708 0014347 281.7170 78.2425 14.67858692997991
CO-65
1 32785U 08021C 24193.48202950 .00004418 00000-0 38795-3 0 9997
2 32785 97.7559 158.6128 0009392 241.2751 118.7527 14.97069009879117
AAUSAT2
1 32788U 08021F 24193.49797165 .00022705 00000-0 10959-2 0 9998
2 32788 97.5949 173.8282 0008090 94.3029 265.9129 15.18652138882011
CO-66
1 32791U 08021J 24193.41562596 .00009472 00000-0 68238-3 0 9992
2 32791 97.6898 164.4585 0004428 205.7810 154.3196 15.04383647880168
RS-30
1 32953U 08025A 24193.69880407 .00000029 00000-0 13536-3 0 9990
2 32953 82.5019 74.2406 0020511 52.4798 307.8142 12.43143458732176
PRISM
1 33493U 09002B 24193.87113322 .00025200 00000-0 11468-2 0 9990
2 33493 98.2028 243.6434 0013168 159.5511 200.6252 15.20627425842808
NOAA-19
1 33591U 09005A 24193.87174514 .00000277 00000-0 17298-3 0 9997
2 33591 99.0457 249.9308 0013213 219.0782 140.9436 14.13044922795111
SRMSAT
1 37841U 11058D 24193.78980279 .00000473 00000-0 11387-3 0 9994
2 37841 19.9736 7.9772 0011856 5.3839 24.6045 14.11138446658262
RS-40
1 38735U 12041C 24193.57380695 .00000037 00000-0 19337-3 0 9992
2 38735 82.4766 154.6826 0017471 161.1710 199.0020 12.42611568542200
ZACUBE-1
1 39417U 13066B 24193.50737811 .00005822 00000-0 60100-3 0 9998
2 39417 97.7352 148.9346 0052349 80.5931 280.1199 14.89524089575202
Delfi-N3xt
1 39428U 13066N 24193.36372745 .00008926 00000-0 11260-2 0 9995
2 39428 97.8365 111.0625 0100716 11.4967 348.8511 14.78601716569848
GOMX-1
1 39430U 13066Q 24193.58215197 .00002213 00000-0 37175-3 0 9996
2 39430 97.7293 66.4891 0139771 174.6724 185.6006 14.64313579566614
LO-74
1 39440U 13066AA 24193.59347724 .00003830 00000-0 45176-3 0 9996
2 39440 97.8133 136.7417 0069088 192.9576 166.9866 14.83610687571955
AO-73
1 39444U 13066AE 24193.41902033 .00007615 00000-0 72990-3 0 9990
2 39444 97.7200 152.0344 0049397 61.8996 298.7203 14.92486669573721
SPROUT
1 39770U 14029E 24193.68289895 .00250429 00000-0 32023-2 0 9990
2 39770 98.0068 349.0999 0004530 251.5921 108.4841 15.58364506551458
DTUSAT-2
1 40030U 14033W 24193.58808407 .00006533 00000-0 54671-3 0 9990
2 40030 98.0077 146.6823 0010593 73.8834 286.3553 14.98777543546351
EO-80
1 40032U 14033Y 24193.48946624 .00007789 00000-0 64947-3 0 9996
2 40032 98.0079 146.5861 0012470 79.3247 280.9378 14.98830638546834
XW-2C
1 40906U 15049H 24193.62940113 .00029041 00000-0 63379-3 0 9990
2 40906 97.4769 211.1013 0007876 194.0398 166.0632 15.44147348488245
XW-2D
1 40907U 15049J 24193.65187358 .00050300 00000-0 81543-3 0 9993
2 40907 97.4710 213.9189 0007685 178.5966 181.5309 15.52588767488495
LILACSAT-2
1 40908U 15049K 24193.77388571 .00009415 00000-0 35881-3 0 9992
2 40908 97.5234 202.6676 0010158 260.6386 99.3704 15.26880147487247
XW-2B
1 40911U 15049N 24193.62655264 .00046409 00000-0 77662-3 0 9993
2 40911 97.4684 213.9488 0007480 181.1827 178.9409 15.51719768488353
